User: anonymous   Login
Location: Laterina
(43.5167°N, 11.7167°E)
Time: 03:42:38
(UTC+00:00)
Language:

YAOGAN 1 - Orbit

View from above orbital plane
View from above orbital plane
View from above satellite
View from above satellite

Ground track
Ground track

The orbit data is extracted from the following two-line orbital elements,

1 29092U 06015A   20329.08149616 +.00000110 +00000-0 +19990-4 0  9999
2 29092 097.9286 352.3131 0001412 089.6827 270.4548 14.83104496788396
Epoch (UTC): 24 November 2020 01:57:21
Eccentricity: 0.0001412
inclination: 97.9286°
perigee height: 618 km
apogee height: 620 km
right ascension of ascending node: 352.3131°
argument of perigee: 89.6827°
revolutions per day: 14.83104496
mean anomaly at epoch: 270.4548°
orbit number at epoch: 78839

The dashed part of the orbit path shows where the satellite is in the earth's shadow,  

DLR